Wetbulb
35.92 32.14 29.43 32.02 35.19 35.91 35.93 34.23 34.16 37.99 41.24 38.32 40.75 43.72 48.49 51.53 52.10 51.20 52.88 54.22 55.42 56.97 60.09 63.17 62.33 62.95 64.40 64.91 64.82 64.80 63.57 63.83 63.89 63.26 63.06 63.66 64.21 65.18 65.70 66.18 66.33 66.28 66.04 65.28
30.77 27.66 31.10 32.71 33.56 33.82 33.72 32.49 32.83 36.76 38.98 38.48 38.80 39.28 43.91 47.75 50.42 52.26 52.75 53.11 53.50 54.98 57.23 60.89 63.39 62.17 61.96 63.27 64.31 64.69 64.62 63.85 63.70 63.89 64.31 65.53 65.27 65.77 66.24 66.45 66.27 65.02 64.14 63.24
26.92 28.88 32.73 29.91 29.14 28.43 30.04 29.91 30.94 32.08 36.76 38.72 37.23 35.71 38.82 43.94 47.15 50.26 52.29 53.83 54.83 54.09 54.57 56.40 61.56 63.25 62.81 62.30 62.97 63.69 64.55 65.37 65.39 66.43 65.92 65.40 65.57 65.59 65.33 65.64 65.27 65.03 64.86 64.99
28.02 30.22 29.78 29.15 26.55 28.91 25.49 31.93 32.41 32.51 31.73 28.77 37.47 27.61 38.10 41.43 42.68 46.52 49.41 51.76 53.27 54.28 54.13 54.83 57.28 61.91 63.52 63.86 63.95 63.92 64.41 64.82 65.59 66.08 65.11 64.18 63.60 63.25 65.23 65.26 64.91 65.72 64.98 64.40
26.10 27.76 28.11 27.23 27.97 29.99 26.70 33.85 32.36 32.22 30.78 30.31 32.33 28.90 34.08 39.27 39.06 43.06 46.79 50.20 52.81 54.34 55.50 54.50 54.23 58.81 62.72 64.50 64.77 64.69 64.51 64.46 64.79 65.08 65.15 64.72 64.31 65.20 65.95 64.54 63.88 63.59 63.89 64.09
29.63 33.70 31.55 30.78 32.21 32.81 32.99 30.36 30.09 30.93 29.30 22.16 29.28 30.01 31.52 35.30 39.41 42.90 46.58 48.56 51.09 53.37 54.41 56.26 56.59 56.20 56.55 62.51 64.40 64.94 64.33 63.83 64.55 64.91 64.71 64.51 64.18 64.78 63.10 63.01 62.82 63.49 63.98 63.62
26.61 27.29 31.42 33.09 28.87 32.40 30.92 26.44 18.84 17.84 18.74 18.18 31.25 28.88 32.05 38.12 40.87 43.52 44.16 47.25 50.03 52.41 53.50 54.09 55.16 53.99 55.93 57.65 60.88 63.53 63.62 62.91 63.74 63.95 64.21 64.19 64.30 64.26 63.36 62.94 62.80 62.09 59.95 56.37
20.76 19.26 27.17 32.12 29.79 26.99 27.22 26.66 19.92 12.89 16.15 22.06 28.97 24.51 32.07 39.81 42.12 44.31 44.20 45.72 47.34 49.94 52.69 53.38 53.96 54.25 55.62 56.13 58.01 59.72 61.07 60.02 61.87 62.47 60.31 60.00 58.96 57.22 55.22 54.47 53.81 53.32 53.42 52.25
20.24 20.60 30.29 30.31 32.22 30.88 26.28 22.86 29.58 22.23 23.51 20.32 25.91 30.41 35.93 39.14 39.55 41.60 43.03 43.75 45.62 47.45 48.24 50.76 51.74 52.93 54.33 54.13 54.31 55.84 55.22 53.82 54.16 54.69 54.18 54.04 53.13 51.72 51.31 49.87 48.54 47.22 47.06 47.25
23.03 17.94 27.19 30.17 31.82 32.11 28.57 30.50 22.24 23.79 13.29 13.15 23.09 25.89 28.09 33.56 36.49 39.59 41.12 42.79 43.87 43.77 44.31 45.41 47.17 49.20 49.44 47.98 49.32 50.10 50.51 50.00 51.35 51.57 51.14 49.41 47.92 46.92 45.75 44.95 43.76 43.80 43.69 44.38
25.53 22.64 23.20 28.87 27.34 26.14 26.58 24.38 24.72 26.04 23.71 17.05 16.93 24.37 34.79 34.15 35.87 36.37 38.51 40.44 42.14 42.38 42.27 43.60 44.18 45.51 45.78 44.50 45.36 45.16 45.47 45.55 46.22 46.66 46.51 46.05 44.52 43.33 42.72 41.82 41.81 41.86 42.42 42.77
27.46 23.51 17.39 21.26 29.56 31.21 30.21 27.49 27.12 19.84 17.81 22.38 22.09 23.43 35.77 35.68 36.46 37.31 38.32 39.31 39.46 40.07 39.90 40.23 41.06 42.71 42.58 41.68 41.45 41.15 41.68 41.91 42.46 43.45 44.05 42.96 40.91 40.24 39.66 39.69 39.55 40.23 39.59 39.80
26.74 21.08 15.43 18.44 24.25 29.81 26.74 28.10 28.58 27.84 26.56 20.99 18.13 21.76 36.26 36.26 36.27 37.80 37.23 38.28 38.36 37.89 37.67 37.77 38.27 38.91 39.33 38.60 38.51 38.13 38.25 39.37 39.28 40.32 39.48 38.33 37.94 37.79 36.71 37.19 37.11 37.72 37.35 37.18
30.00 23.55 18.62 14.76 19.11 21.61 19.34 22.22 24.50 23.14 19.23 20.62 22.73 25.10 30.52 33.51 34.28 36.64 38.13 37.36 37.38 37.38 36.78 36.97 36.55 36.97 37.28 37.25 36.77 36.39 35.77 36.77 37.16 36.18 36.08 35.29 34.42 34.21 34.07 34.36 34.48 34.36 35.05 35.31
28.05 19.16 20.04 21.97 22.95 22.67 21.05 20.04 21.16 20.32 22.21 19.21 23.92 24.76 30.52 33.85 35.37 37.29 39.11 37.53 35.07 34.32 34.66 35.95 35.38 35.19 34.93 34.11 34.28 35.25 34.67 33.95 33.71 33.46 32.70 31.39 31.95 32.13 32.43 32.06 31.95 31.99 32.32 32.16
26.91 19.28 19.43 16.08 21.03 21.40 19.14 21.67 22.30 23.80 24.20 23.11 24.90 25.13 34.36 36.22 36.92 35.85 37.03 36.37 34.58 34.60 34.72 34.37 33.52 33.78 33.52 32.96 31.83 31.48 31.23 31.28 32.20 31.32 30.27 30.64 30.68 30.23 30.19 30.38 30.19 30.52 30.21 30.37
23.80 21.39 17.52 13.17 18.93 18.78 14.48 19.61 21.35 24.68 27.13 26.56 21.55 29.13 34.72 33.86 34.40 34.89 36.27 36.21 35.72 35.15 33.59 32.30 32.62 33.41 32.42 31.76 32.16 31.06 30.65 31.11 30.76 30.56 30.25 30.12 29.66 28.95 28.47 29.34 29.41 28.67 28.70 29.33
22.46 21.92 20.41 14.50 12.36 7.90 22.89 27.82 27.44 24.97 28.00 30.42 30.41 32.09 33.75 34.37 36.40 37.09 38.19 36.85 35.91 34.42 32.87 32.66 32.81 32.32 31.78 31.98 30.75 30.20 30.60 30.23 29.64 28.64 28.72 28.97 28.83 28.13 28.03 28.22 27.72 27.70 27.97 27.65
25.50 22.10 17.80 12.80 10.46 16.49 20.38 25.95 24.09 23.33 24.77 30.71 29.79 31.48 32.64 34.47 35.12 34.47 37.19 37.38 36.19 33.68 33.41 31.96 31.99 31.42 31.27 31.10 30.80 29.98 29.36 29.08 28.42 27.27 27.06 27.03 27.65 27.01 26.80 26.42 26.13 26.44 26.86 26.62
21.61 24.44 19.86 9.10 8.87 7.72 22.08 26.98 31.32 30.36 18.66 30.10 29.94 30.17 30.81 33.29 27.18 33.16 34.81 35.04 34.27 34.05 33.58 32.04 32.44 31.98 31.39 30.33 30.39 28.90 27.83 27.57 26.95 26.72 25.94 26.32 26.40 26.21 25.95 25.78 25.15 24.95 25.51 24.32
17.04 18.43 15.50 16.25 13.01 15.87 24.41 27.55 29.98 17.24 22.43 29.05 31.58 31.78 33.41 30.90 34.22 35.67 34.63 33.57 34.02 33.41 32.62 32.04 30.40 29.88 30.29 29.26 29.37 27.96 27.34 27.29 26.82 25.56 24.57 24.08 24.72 24.56 25.24 24.46 24.24 24.11 24.10 24.55
14.88 13.33 12.80 12.92 11.48 9.00 27.30 25.34 22.77 29.51 29.82 30.20 31.66 32.24 33.41 35.65 33.11 32.41 33.75 33.40 33.05 31.81 31.18 30.59 29.64 28.76 28.62 28.37 27.96 26.80 26.50 26.13 25.25 24.41 23.45 22.84 23.19 23.96 23.97 24.30 23.61 23.34 24.31 24.29
14.32 20.17 18.94 17.26 17.55 27.20 27.95 28.26 31.13 28.57 27.96 28.75 29.58 33.02 35.01 33.17 31.68 33.21 32.73 32.77 31.76 30.58 29.77 28.04 28.50 27.48 27.63 27.37 27.93 26.37 26.01 24.72 23.19 22.61 21.50 21.57 22.32 22.96 23.09 24.42 22.96 23.93 22.64 23.63
19.38 23.30 18.99 20.17 25.09 24.41 26.89 29.72 30.91 31.23 28.70 29.63 31.67 32.28 33.83 32.25 32.01 31.62 31.67 30.30 29.76 29.55 29.64 29.37 28.29 27.02 25.74 26.47 25.42 27.14 25.20 24.39 22.38 22.21 21.40 21.09 22.35 21.40 21.04 22.61 22.65 23.71 23.28 22.91
24.40 21.84 20.55 20.76 24.64 26.78 28.59 29.79 29.86 29.79 30.56 30.78 31.70 31.74 32.07 31.92 30.69 30.93 30.16 29.83 30.66 29.85 27.16 27.65 27.45 27.11 26.92 25.85 25.54 24.42 24.21 23.26 22.55 22.65 21.09 22.09 22.19 22.03 20.87 20.96 22.12 21.35 21.63 22.75
25.61 21.69 20.05 21.51 27.52 27.29 27.97 28.52 28.72 28.99 30.09 31.64 31.06 31.21 30.81 32.38 31.67 31.69 31.18 31.14 29.28 28.20 27.52 27.01 27.02 26.97 27.82 26.14 25.09 23.46 22.87 21.98 22.04 21.49 20.89 21.99 21.43 20.41 20.45 20.47 20.23 19.42 21.03 22.49
MSLP
1022.97 1022.09 1021.05 1020.78 1020.45 1020.03 1019.55 1018.99 1018.17 1017.76 1017.30 1016.82 1014.98 1013.55 1012.26 1011.50 1011.01 1010.53 1010.18 1010.14 1010.06 1010.20 1010.51 1011.53 1012.58 1013.22 1013.85 1014.34 1014.86 1015.40 1016.16 1016.82 1017.43 1018.16 1018.36 1018.12 1018.34 1018.58 1018.45 1018.54 1018.88 1019.36 1019.62 1019.78
1023.36 1022.58 1022.57 1022.10 1021.74 1021.26 1020.62 1019.66 1018.92 1018.57 1018.10 1017.24 1015.83 1013.92 1013.13 1011.79 1010.89 1010.28 1010.00 1009.85 1009.89 1009.94 1010.25 1011.16 1011.83 1012.59 1013.00 1013.41 1013.99 1014.74 1015.42 1016.02 1016.58 1017.07 1017.46 1017.81 1017.77 1017.73 1017.91 1018.01 1018.26 1018.85 1019.31 1019.57
1023.75 1023.69 1023.50 1022.77 1022.26 1021.79 1021.06 1020.63 1019.74 1019.88 1018.81 1017.30 1016.45 1013.20 1012.38 1011.29 1011.18 1010.45 1009.78 1009.62 1009.37 1009.42 1009.64 1010.29 1011.07 1011.58 1012.17 1012.67 1013.01 1013.55 1014.43 1015.13 1015.74 1016.11 1016.65 1017.00 1017.30 1017.33 1017.55 1017.87 1018.08 1018.25 1018.51 1018.70
1024.45 1024.37 1023.92 1023.38 1022.81 1022.52 1021.48 1021.12 1020.54 1020.36 1019.74 1017.53 1016.45 1011.67 1010.12 1009.88 1009.45 1009.52 1009.11 1009.18 1009.08 1009.01 1009.36 1009.70 1010.29 1011.01 1011.35 1011.46 1012.19 1012.78 1013.40 1014.16 1014.89 1015.36 1015.65 1016.00 1016.18 1016.28 1016.47 1017.04 1017.54 1017.80 1018.19 1018.53
1024.81 1024.58 1024.25 1023.67 1023.19 1022.92 1022.26 1021.97 1021.29 1020.90 1020.13 1019.02 1016.91 1014.89 1009.06 1010.52 1008.79 1008.26 1008.27 1008.39 1008.60 1008.53 1008.54 1008.78 1009.40 1010.11 1010.63 1011.17 1011.77 1012.10 1012.78 1013.50 1014.14 1014.62 1014.81 1015.19 1015.55 1015.73 1015.99 1016.83 1017.27 1017.59 1017.83 1018.26
1025.41 1025.01 1024.77 1024.01 1023.36 1023.23 1022.96 1022.57 1021.83 1021.30 1020.57 1018.34 1016.06 1014.75 1008.85 1009.11 1008.65 1008.04 1007.76 1007.75 1007.83 1007.95 1008.15 1008.20 1008.65 1009.70 1010.15 1010.74 1011.30 1011.82 1012.26 1012.68 1013.38 1013.99 1014.62 1014.70 1015.13 1015.50 1016.29 1016.74 1017.19 1017.55 1017.88 1018.33
1025.45 1024.94 1024.54 1024.37 1023.66 1023.47 1023.20 1022.60 1021.64 1021.11 1019.96 1016.50 1014.67 1013.95 1009.72 1009.50 1009.22 1008.69 1008.40 1008.17 1007.97 1007.79 1008.01 1008.10 1008.29 1009.49 1009.95 1010.66 1011.30 1011.61 1012.00 1012.41 1013.00 1013.56 1014.00 1014.59 1015.02 1015.65 1016.15 1016.65 1017.29 1017.79 1018.27 1018.78
1026.10 1024.81 1024.37 1024.26 1023.41 1022.78 1022.60 1022.09 1020.93 1019.83 1018.38 1015.74 1015.03 1012.42 1010.27 1009.91 1008.91 1008.92 1009.14 1008.58 1008.78 1008.35 1008.20 1008.28 1008.43 1009.13 1009.97 1010.95 1011.59 1011.98 1012.35 1012.73 1013.02 1013.55 1014.18 1014.71 1015.41 1016.25 1017.06 1017.63 1018.21 1018.76 1019.09 1019.61
1027.02 1025.31 1024.10 1023.79 1023.32 1023.26 1022.41 1021.94 1021.09 1020.86 1019.39 1017.35 1014.14 1011.98 1010.76 1010.37 1009.82 1009.87 1009.48 1009.50 1009.11 1009.22 1009.50 1009.45 1009.49 1009.67 1010.74 1011.46 1011.97 1012.32 1012.93 1013.50 1013.98 1014.47 1014.97 1015.40 1016.01 1016.71 1017.67 1018.45 1018.87 1019.37 1019.85 1019.68
1027.93 1026.47 1024.44 1023.67 1023.49 1022.98 1022.31 1022.02 1021.80 1021.38 1019.54 1017.06 1013.74 1012.11 1010.53 1010.34 1010.31 1009.77 1010.07 1010.19 1010.08 1010.45 1010.59 1010.87 1011.02 1010.88 1011.59 1012.46 1012.75 1013.05 1013.60 1014.17 1014.89 1015.25 1015.68 1016.19 1016.84 1017.39 1017.72 1018.34 1019.59 1019.62 1020.31 1020.38
1028.25 1027.54 1025.06 1024.33 1023.05 1022.00 1022.47 1022.26 1021.95 1021.34 1019.80 1017.53 1014.69 1011.72 1011.24 1011.33 1011.41 1011.54 1011.44 1011.43 1011.45 1011.57 1011.84 1012.02 1012.27 1012.34 1012.56 1013.00 1013.71 1014.04 1014.31 1014.90 1015.80 1016.63 1016.84 1016.78 1017.80 1018.54 1018.84 1018.70 1020.05 1020.18 1020.60 1020.83
1027.92 1027.41 1025.65 1023.88 1022.60 1022.42 1022.14 1021.62 1021.39 1020.80 1019.64 1018.15 1016.07 1012.98 1012.34 1011.84 1012.30 1012.28 1012.36 1012.34 1012.62 1012.86 1013.03 1013.22 1013.37 1013.47 1013.75 1013.92 1014.45 1014.98 1015.50 1015.74 1016.34 1017.39 1018.09 1018.50 1018.03 1018.58 1020.21 1019.37 1020.13 1020.66 1021.54 1021.24
1027.81 1027.35 1025.98 1023.67 1023.27 1022.83 1022.56 1022.04 1021.69 1020.86 1019.97 1018.27 1016.66 1013.61 1012.25 1011.91 1012.02 1012.16 1012.45 1012.90 1013.55 1013.68 1013.84 1013.77 1014.14 1014.14 1014.57 1015.02 1015.50 1015.71 1016.31 1016.95 1017.44 1017.90 1018.45 1019.54 1019.11 1020.33 1019.46 1021.15 1020.43 1021.83 1022.20 1022.34
1027.62 1027.05 1026.34 1024.81 1023.87 1024.28 1023.31 1022.49 1022.16 1022.05 1020.44 1018.33 1016.30 1014.14 1012.67 1011.69 1011.89 1011.61 1012.04 1012.90 1013.73 1013.94 1014.59 1014.20 1014.19 1014.90 1015.42 1015.52 1016.03 1016.60 1017.03 1017.44 1018.30 1018.80 1019.02 1020.08 1020.21 1021.24 1021.48 1021.35 1021.94 1022.03 1022.25 1023.13
1027.33 1026.69 1026.34 1025.24 1024.71 1024.30 1023.21 1022.09 1021.07 1021.39 1019.53 1018.80 1015.61 1014.57 1012.18 1011.77 1011.72 1011.41 1011.39 1012.75 1013.56 1014.07 1014.75 1014.83 1015.11 1014.69 1015.97 1016.35 1016.87 1017.45 1017.97 1018.23 1018.52 1019.37 1019.52 1020.63 1021.27 1021.97 1021.97 1022.28 1022.32 1023.00 1023.01 1023.78
1027.22 1026.61 1026.47 1025.53 1024.63 1023.51 1022.13 1020.50 1019.90 1019.16 1018.04 1017.61 1015.71 1014.30 1011.07 1012.03 1011.83 1011.78 1011.81 1012.51 1013.31 1013.94 1014.70 1015.27 1015.77 1015.92 1015.92 1016.66 1017.33 1018.18 1018.80 1019.09 1019.24 1020.07 1020.74 1021.28 1021.84 1022.02 1021.92 1022.99 1023.01 1023.39 1024.08 1023.90
1026.86 1026.77 1026.49 1024.89 1024.40 1023.25 1020.81 1018.09 1017.66 1016.65 1015.90 1015.37 1014.77 1011.95 1011.78 1011.58 1011.54 1011.91 1012.32 1012.90 1013.32 1013.94 1014.52 1015.59 1015.98 1016.34 1016.90 1017.01 1017.71 1018.28 1019.09 1019.84 1020.16 1020.82 1021.19 1021.76 1022.29 1022.68 1022.56 1023.75 1023.68 1023.89 1024.18 1024.36
1026.27 1026.70 1026.49 1025.30 1024.98 1022.05 1017.58 1016.99 1016.67 1016.14 1014.72 1014.11 1013.14 1012.13 1011.81 1011.52 1011.65 1011.89 1012.12 1012.45 1013.17 1014.21 1014.42 1015.61 1016.28 1016.85 1017.51 1017.93 1018.53 1018.95 1019.42 1020.20 1020.78 1020.85 1021.48 1022.09 1022.75 1022.90 1023.46 1023.98 1024.18 1024.64 1025.09 1024.71
1026.44 1026.56 1026.04 1025.79 1024.41 1020.67 1017.16 1015.62 1015.56 1015.32 1013.49 1013.08 1012.75 1012.52 1012.32 1011.83 1011.92 1011.41 1011.67 1012.28 1013.26 1014.27 1014.63 1015.58 1016.55 1017.62 1018.16 1018.48 1018.81 1019.38 1020.13 1020.56 1020.88 1021.49 1021.89 1023.14 1023.25 1023.57 1023.90 1024.37 1024.98 1025.45 1025.07 1024.63
1026.24 1025.97 1025.82 1026.05 1024.36 1020.87 1016.04 1015.41 1015.49 1015.30 1013.99 1013.31 1013.27 1013.00 1012.56 1011.89 1011.38 1010.14 1011.39 1012.44 1013.53 1014.47 1015.17 1015.88 1017.12 1018.05 1018.47 1018.94 1019.40 1019.81 1020.30 1020.88 1021.61 1022.57 1023.10 1023.30 1023.31 1023.79 1024.48 1024.95 1025.26 1025.06 1024.74 1024.84
1025.93 1025.52 1024.82 1024.24 1023.03 1019.32 1016.04 1015.29 1015.78 1015.38 1013.95 1013.41 1013.36 1012.41 1011.75 1011.30 1011.07 1010.70 1011.34 1012.64 1013.55 1014.57 1015.72 1016.56 1017.37 1018.20 1018.92 1019.53 1019.97 1020.49 1021.06 1021.45 1022.25 1023.13 1023.23 1023.47 1024.03 1024.51 1024.89 1025.13 1024.92 1024.81 1024.62 1024.71
1024.79 1024.40 1023.94 1023.61 1022.37 1018.48 1014.72 1015.45 1014.57 1012.81 1012.84 1012.98 1012.72 1011.89 1010.62 1011.13 1011.46 1011.59 1011.88 1013.35 1014.14 1015.15 1016.39 1017.22 1017.91 1018.76 1019.59 1020.01 1020.45 1020.93 1021.25 1021.94 1022.60 1022.91 1023.41 1023.94 1024.74 1024.93 1024.78 1024.74 1024.55 1024.41 1024.41 1024.54
1023.77 1021.80 1021.23 1020.80 1017.90 1015.00 1014.72 1013.76 1013.23 1013.26 1013.25 1012.82 1012.46 1011.83 1011.40 1011.62 1012.02 1011.96 1012.75 1013.73 1014.70 1015.67 1016.80 1017.79 1018.28 1019.07 1019.75 1020.22 1020.71 1021.04 1021.36 1021.94 1022.58 1023.28 1023.97 1024.62 1024.73 1024.70 1024.47 1023.87 1024.07 1024.48 1024.98 1025.20
1022.05 1021.20 1020.36 1019.13 1015.17 1014.66 1014.03 1013.56 1013.00 1012.94 1012.97 1012.80 1012.42 1011.96 1011.94 1012.10 1012.54 1013.08 1013.57 1014.52 1015.34 1016.44 1016.90 1017.54 1018.44 1019.24 1019.89 1020.35 1020.64 1020.82 1021.51 1022.16 1022.80 1023.25 1023.80 1024.30 1024.13 1023.71 1023.87 1024.28 1024.87 1025.20 1025.47 1025.63
1020.73 1020.43 1018.54 1016.68 1014.69 1014.32 1013.41 1012.63 1012.50 1012.67 1012.74 1012.53 1012.57 1012.49 1012.59 1012.83 1013.22 1013.46 1014.26 1014.81 1015.33 1016.23 1017.12 1017.86 1018.49 1019.10 1019.60 1020.19 1020.66 1021.15 1021.59 1022.19 1022.79 1023.23 1023.45 1023.38 1023.57 1023.99 1024.46 1024.99 1025.30 1025.56 1025.68 1025.65
1017.48 1016.52 1017.14 1014.13 1013.17 1012.95 1012.24 1012.09 1011.95 1011.82 1012.22 1012.49 1012.82 1012.77 1012.94 1013.18 1013.40 1013.90 1014.52 1014.91 1015.65 1016.52 1017.32 1018.01 1018.47 1018.95 1019.36 1020.02 1020.60 1021.18 1021.58 1022.00 1022.33 1022.77 1023.08 1023.36 1023.78 1024.28 1024.56 1024.93 1025.36 1025.72 1025.61 1025.37
Wind_Speed
4 4 5 4 6 10 9 8 9 7 8 13 13 19 23 21 16 14 20 19 19 19 19 14 17 18 18 18 18 17 16 14 10 9 10 10 11 10 10 9 12 11 10 10
2 5 2 2 5 6 10 13 15 13 14 12 16 21 19 22 22 23 20 18 20 19 17 13 16 18 20 20 19 19 18 17 13 10 10 9 10 10 9 9 10 11 10 10
5 4 4 8 5 7 11 14 10 7 12 17 17 29 28 25 23 22 23 23 21 19 19 17 16 20 19 19 21 20 19 19 17 17 11 9 6 6 8 8 8 9 12 12
5 3 3 4 5 7 9 6 13 12 6 7 9 15 15 21 29 28 24 22 23 21 18 16 16 16 19 21 17 19 19 19 17 18 14 16 11 11 9 9 8 8 7 8
3 3 6 8 5 4 4 6 3 8 12 10 16 12 13 19 19 21 26 25 23 23 21 20 18 17 17 15 16 17 18 18 18 17 16 13 13 10 6 5 7 6 6 6
12 6 6 11 6 5 1 4 6 7 8 14 19 16 12 17 13 13 17 22 24 24 21 20 18 15 14 12 14 15 18 18 18 18 15 15 15 11 8 5 4 3 2 2
7 6 3 9 7 6 5 4 4 6 8 12 10 16 19 10 9 6 5 9 16 20 21 20 19 13 12 12 13 14 17 17 17 17 16 14 11 11 8 5 3 4 3 2
6 3 4 7 9 4 12 13 6 8 8 9 16 13 7 2 12 11 12 14 9 12 16 18 16 15 12 9 9 11 13 9 12 12 8 8 9 6 6 8 6 5 4 4
5 6 6 9 6 7 5 12 17 12 15 7 7 20 17 9 10 8 7 7 12 5 7 10 9 10 8 7 6 7 9 8 9 10 9 10 10 10 8 8 6 7 3 5
2 9 6 3 4 10 13 3 5 8 7 10 9 17 12 3 14 17 9 9 6 4 2 3 4 7 8 7 8 10 10 10 8 8 8 8 9 9 10 9 7 8 4 6
3 5 4 4 6 8 6 6 8 5 6 8 8 8 2 2 6 10 10 6 6 4 2 1 5 5 8 10 9 10 11 12 11 7 9 12 10 9 6 10 8 7 6 6
5 4 7 12 13 5 6 15 15 9 11 11 13 18 2 4 5 7 12 8 3 0 2 4 5 7 7 9 10 10 10 11 11 10 9 9 10 10 7 9 9 8 6 6
3 4 7 7 3 2 5 6 12 17 15 17 16 16 8 7 14 10 7 5 5 4 7 8 7 8 10 9 9 11 10 10 10 10 13 9 12 9 12 8 11 7 6 6
4 7 10 11 8 4 12 15 17 12 10 14 17 26 24 25 23 22 12 6 6 6 6 8 11 9 10 11 10 10 11 10 9 10 12 11 10 9 8 9 9 8 8 6
5 7 9 16 19 18 21 22 22 17 23 16 24 22 24 21 15 17 14 8 8 9 9 9 9 13 11 11 11 10 10 9 9 10 12 10 9 8 8 8 9 8 8 6
5 9 4 12 19 21 24 24 21 22 25 21 27 26 30 19 20 17 12 10 12 11 10 8 8 10 13 12 10 9 9 8 9 10 9 9 9 8 8 8 7 7 5 6
7 5 4 11 8 15 14 17 20 19 21 20 18 29 13 15 13 9 10 12 12 12 13 10 11 11 9 11 11 12 10 9 9 10 10 9 8 8 8 6 6 7 6 6
13 8 4 9 5 9 8 7 7 11 16 18 21 22 18 15 8 6 11 14 14 14 15 13 10 10 10 10 11 10 10 10 9 9 9 8 7 8 7 6 6 5 4 5
12 9 5 5 4 16 17 6 4 8 13 14 20 13 15 18 14 15 12 12 13 13 13 9 7 8 9 10 11 11 11 8 8 9 8 6 6 7 7 6 5 4 4 5
6 11 9 4 5 8 5 1 3 2 11 6 6 13 15 12 11 10 16 13 14 14 12 13 13 11 10 9 8 8 8 8 8 7 7 6 6 6 6 6 6 3 5 5
3 5 15 11 9 12 15 12 2 4 2 7 14 17 14 14 8 1 14 14 15 14 13 12 11 9 8 7 8 7 8 8 7 7 7 6 5 6 6 5 4 4 5 5
9 7 6 5 7 14 10 4 9 2 2 4 12 13 11 13 4 11 16 15 15 14 13 10 10 8 8 7 6 7 7 7 8 7 7 6 5 4 4 6 5 5 5 6
7 9 4 12 10 12 6 11 6 6 14 9 8 7 7 7 5 12 15 15 14 14 11 6 8 8 7 6 5 7 6 8 7 6 6 7 6 6 4 5 6 5 4 2
7 8 7 2 7 19 21 20 17 9 7 7 5 4 5 7 13 12 13 11 11 10 12 11 9 8 7 6 4 3 9 9 8 7 7 7 6 5 6 4 3 3 3 3
8 8 7 14 19 16 24 20 17 14 6 3 3 2 3 9 8 11 11 11 12 10 6 8 9 8 8 8 8 7 8 9 9 6 5 5 4 3 4 2 3 3 3 3
11 11 14 11 10 3 4 2 4 7 14 7 3 1 5 6 12 12 10 8 8 9 7 7 7 7 8 8 7 7 7 8 7 5 4 4 4 4 4 4 4 3 3 3
Wind_Direction
14 230 230 257 264 294 285 259 255 269 278 321 268 257 249 248 234 236 242 239 237 225 232 208 203 199 201 205 206 203 200 196 187 192 205 205 212 215 213 213 214 218 218 214
278 281 68 311 268 276 263 261 256 269 276 276 273 270 265 259 252 245 239 235 236 237 233 213 200 199 201 201 205 209 202 200 188 188 194 209 213 217 223 213 211 207 210 208
314 13 283 318 280 251 247 256 256 289 306 271 275 276 260 257 249 249 246 245 241 236 232 222 206 204 203 204 203 205 207 204 198 199 197 198 212 218 209 214 218 210 210 213
296 332 310 315 286 245 264 251 248 264 285 265 194 277 250 229 239 238 238 236 237 235 233 228 217 212 207 212 203 203 203 204 201 198 195 198 199 201 204 204 206 216 202 215
355 271 273 273 256 205 277 325 272 254 257 293 247 262 256 241 253 241 233 233 235 234 232 222 212 212 213 212 208 208 203 204 199 199 199 196 208 212 204 191 179 183 191 211
264 288 268 248 261 223 271 279 241 255 260 249 235 230 262 233 248 259 234 238 234 231 234 229 222 224 231 215 209 205 206 204 200 200 203 203 206 201 182 166 175 173 138 114
303 231 247 229 246 196 205 202 221 208 205 244 198 212 252 286 295 261 287 278 257 236 233 236 226 214 211 206 215 208 204 204 200 200 199 199 201 194 175 147 138 126 110 81
327 308 194 173 235 278 211 210 218 234 210 257 206 231 231 327 248 268 288 269 273 257 241 238 225 211 190 187 189 201 203 180 193 192 151 124 110 106 84 73 69 57 61 36
313 263 303 230 224 227 179 214 243 291 281 261 231 245 264 262 278 264 271 275 255 257 261 248 221 189 171 154 148 147 131 116 121 121 118 114 115 108 108 106 114 113 81 84
317 287 273 308 201 234 243 359 206 205 244 247 227 244 247 225 237 249 245 259 260 305 246 205 194 153 125 107 103 98 103 106 107 117 118 110 105 105 119 102 80 84 76 66
212 235 270 297 221 254 183 216 222 290 255 270 263 240 123 8 6 321 310 322 325 320 328 219 137 126 122 112 104 102 101 102 94 85 108 109 89 87 68 106 110 76 88 105
197 292 278 265 269 284 280 255 235 235 241 238 265 265 272 187 1 332 318 327 311 232 125 129 122 119 109 105 106 98 96 96 102 106 106 97 102 104 115 79 96 116 121 91
181 250 299 287 170 162 249 274 265 261 261 251 255 259 254 299 295 304 312 307 287 218 163 144 132 118 116 105 98 100 97 101 104 113 110 106 105 109 95 114 91 94 84 84
214 231 230 258 295 321 287 282 276 278 283 280 258 266 266 272 278 288 277 240 224 218 207 160 138 129 119 113 111 108 104 105 107 104 101 96 81 85 88 76 84 79 77 67
223 250 241 256 269 273 267 266 268 251 251 255 271 272 273 271 290 284 287 222 201 199 198 181 161 137 132 121 114 113 108 107 105 108 107 101 100 88 91 86 93 72 77 87
194 261 254 282 274 263 266 264 262 258 257 248 251 267 261 279 273 266 250 220 206 195 190 175 153 144 137 133 121 116 109 97 99 103 104 99 107 115 81 96 84 100 103 81
235 253 265 281 318 314 273 249 245 250 239 230 233 238 277 270 281 269 241 224 218 196 168 170 161 148 142 129 128 120 115 111 104 111 114 108 102 100 89 103 98 77 72 85
247 242 243 288 317 248 261 300 247 256 261 234 246 254 262 266 277 244 228 214 201 187 158 160 156 140 134 126 120 114 112 119 120 99 103 102 110 103 99 98 92 98 103 89
221 238 241 255 250 292 284 269 183 207 273 246 253 278 292 276 270 258 225 208 187 171 152 139 122 123 132 132 131 128 127 114 108 112 106 137 131 125 119 115 121 139 124 94
224 225 231 149 257 262 258 181 129 88 278 141 316 292 278 260 226 231 172 161 152 153 145 137 138 146 142 137 134 121 124 133 131 140 144 132 113 118 132 147 153 130 98 105
189 212 230 231 248 266 260 241 127 249 312 315 311 284 254 222 229 3 140 143 147 142 140 135 137 145 146 145 143 138 147 149 136 138 124 113 126 142 152 147 134 131 116 103
192 181 204 197 227 259 215 119 208 213 131 298 307 295 253 194 151 145 129 144 139 137 142 144 143 150 151 154 155 160 161 136 139 131 127 128 157 168 157 154 131 89 73 67
236 212 213 209 220 254 237 266 249 336 303 307 286 317 166 148 150 147 144 146 145 144 143 134 149 155 164 163 179 167 146 141 135 135 150 168 175 171 155 100 75 68 57 74
236 216 245 307 245 246 257 266 270 281 267 282 298 271 206 153 145 140 138 139 137 151 163 170 164 162 165 174 182 174 158 161 158 167 178 185 179 112 74 75 94 147 175 191
240 164 228 260 265 270 274 261 250 257 256 333 319 157 161 144 136 144 147 158 166 166 131 143 158 170 184 179 190 178 171 169 182 179 167 133 98 111 131 161 182 194 206 223
198 214 207 226 221 244 258 244 297 237 233 242 227 173 131 158 158 165 171 159 151 149 149 170 185 185 192 185 187 178 175 176 163 164 163 166 161 170 176 174 174 211 253 226